EW5993 Weather Reports


time (UTC)temp
C
wind
direction
speed
KPH
gust
KPH
rain 1hr
cm
rain 24hr
cm
rain mn
cm
humidity
%
barometer
mb
20260510045119 11 319 0.0 0.0 0.00 0.23 0.00 93 990.2
20260510044504 11 319 0.0 3.2 0.00 0.25 0.00 93 990.2
20260510044143 11 319 0.0 1.6 0.00 0.23 0.00 93 990.1
20260510043156 12 319 0.0 0.0 0.00 0.23 0.00 93 990.2
20260510043004 11 319 0.0 3.2 0.00 0.25 0.00 93 990.2
20260510042159 12 322 0.0 0.0 0.00 0.23 0.00 93 990.3
20260510041603 11 322 0.0 3.2 0.00 0.25 0.00 93 990.3
20260510041157 12 322 0.0 0.0 0.00 0.23 0.00 93 990.2
20260510040145 12 322 0.0 0.0 0.00 0.23 0.00 93 990.3
20260510040104 11 322 0.0 1.6 0.00 0.25 0.00 93 990.3
20260510035124 12 321 0.0 0.0 0.00 0.23 0.25 93 990.3
20260510034611 11 322 0.0 4.8 0.00 0.25 0.25 94 990.3
20260510034122 11 287 0.0 1.6 0.00 0.23 0.25 93 990.3
20260510033056 11 287 0.0 1.6 0.00 0.23 0.25 93 990.3
20260510033003 11 287 0.0 3.2 0.00 0.25 0.25 93 990.3
20260510032030 11 287 0.0 1.6 0.00 0.23 0.25 93 990.3
20260510031503 10 287 0.0 6.4 0.00 0.25 0.25 93 990.3
20260510031053 11 287 1.6 4.8 0.00 0.23 0.25 92 990.2
20260510030023 11 306 0.0 3.2 0.00 0.23 0.25 91 990.3
20260510025000 11 309 0.0 1.6 0.00 0.23 0.25 91 990.3
20260510024603 11 309 0.0 1.6 0.00 0.25 0.25 91 990.4
20260510023952 11 309 0.0 3.2 0.00 0.23 0.25 91 990.2
20260510023102 11 310 0.0 1.6 0.00 0.25 0.25 90 990.2
20260510022932 11 310 0.0 0.0 0.00 0.23 0.25 90 990.2
20260510021911 11 310 0.0 0.0 0.00 0.23 0.25 90 990.1
20260510021503 11 310 0.0 3.2 0.00 0.25 0.25 90 990.2
20260510020842 12 310 0.0 1.6 0.00 0.23 0.25 90 990.1
20260510015819 12 310 0.0 0.0 0.00 0.23 0.25 89 989.9
20260510014834 12 310 0.0 0.0 0.00 0.23 0.25 89 989.8
20260510014602 12 310 0.0 0.0 0.00 0.25 0.25 89 989.8
20260510013808 12 310 0.0 0.0 0.00 0.23 0.25 89 989.6
20260510013003 12 310 1.6 4.8 0.00 0.25 0.25 89 989.7
20260510012747 12 310 0.0 1.6 0.00 0.23 0.25 88 989.6
20260510011741 13 310 0.0 3.2 0.00 0.23 0.25 88 989.6
20260510011604 12 310 0.0 4.8 0.00 0.25 0.25 87 989.6
20260510010714 13 311 1.6 3.2 0.00 0.23 0.25 86 989.5
20260510010004 13 360 1.6 3.2 0.00 0.25 0.25 84 989.5
20260510005700 14 0 0.0 1.6 0.00 0.23 0.25 83 989.3
20260510004709 14 0 0.0 1.6 0.00 0.23 0.25 83 989.3
20260510004602 14 360 0.0 3.2 0.00 0.25 0.25 83 989.3
20260510003641 15 0 0.0 0.0 0.00 0.23 0.25 82 989.3
20260510003006 15 360 0.0 3.2 0.00 0.25 0.25 81 989.4
20260510002616 15 0 0.0 0.0 0.00 0.23 0.25 81 989.2
20260510001504 15 360 1.6 3.2 0.00 0.25 0.25 80 989.1
20260510000514 16 19 0.0 0.0 0.00 0.23 0.25 79 988.8
20260510000108 16 19 0.0 3.2 0.00 0.25 0.25 79 989.0
20260509235506 16 19 0.0 3.2 0.00 0.23 0.25 79 988.9
20260509234615 16 19 1.6 4.8 0.00 0.25 0.25 78 989.0
20260509234436 16 19 0.0 3.2 0.00 0.23 0.25 78 988.9
20260509233447 16 20 0.0 3.2 0.00 0.23 0.25 77 988.7
20260509233002 16 20 1.6 4.8 0.00 0.25 0.25 77 988.8
20260509232508 17 24 0.0 8.0 0.00 0.23 0.25 79 988.7
20260509231603 16 31 3.2 9.7 0.00 0.25 0.25 78 988.7
20260509231506 17 14 1.6 6.4 0.00 0.23 0.25 77 988.7
20260509230514 17 17 3.2 8.0 0.00 0.23 0.25 77 988.7
20260509230006 16 28 4.8 9.7 0.00 0.25 0.25 76 988.9
20260509225510 17 355 3.2 9.7 0.00 0.23 0.25 77 988.8
20260509224506 17 5 4.8 9.7 0.00 0.23 0.25 76 988.8
20260509224502 17 5 4.8 9.7 0.00 0.25 0.25 76 988.9
20260509223504 17 350 1.6 9.7 0.00 0.23 0.25 75 988.8
20260509223103 17 360 3.2 9.7 0.00 0.25 0.25 75 988.8
20260509221603 17 5 1.6 6.4 0.00 0.25 0.25 75 988.7
20260509221328 17 5 0.0 4.8 0.00 0.23 0.25 76 988.7
20260509220314 17 41 0.0 6.4 0.00 0.23 0.25 75 988.7
20260509220200 17 41 0.0 6.4 0.00 0.25 0.25 75 988.9
20260509215326 17 355 1.6 6.4 0.00 0.23 0.25 77 988.9
20260509214602 17 360 1.6 6.4 0.00 0.25 0.25 78 989.0
20260509213151 17 186 0.0 0.0 0.00 0.23 0.25 80 989.2
20260509213003 16 186 0.0 4.8 0.00 0.25 0.25 80 989.3
20260509211503 16 186 0.0 3.2 0.00 0.25 0.25 80 989.5
20260509211015 17 176 0.0 0.0 0.00 0.23 0.25 80 989.6
20260509210105 16 176 0.0 4.8 0.00 0.25 0.25 81 989.6
20260509205941 17 176 0.0 0.0 0.00 0.23 0.25 80 989.5
20260509204913 17 285 0.0 1.6 0.00 0.23 0.25 79 989.6
20260509204602 17 285 0.0 3.2 0.00 0.25 0.25 79 989.5
20260509203042 17 285 1.6 8.0 0.00 0.25 0.25 78 989.3
20260509202718 17 283 1.6 8.0 0.00 0.23 0.25 79 989.1
20260509201735 17 286 0.0 0.0 0.00 0.23 0.25 81 989.3
20260509201603 17 286 0.0 3.2 0.00 0.25 0.25 81 989.4
20260509200103 17 15 0.0 1.6 0.00 0.25 0.25 81 989.6
20260509195609 17 30 0.0 0.0 0.00 0.23 0.25 79 989.7
20260509194611 17 30 0.0 3.2 0.00 0.23 0.25 81 989.8
20260509194509 17 30 0.0 4.8 0.00 0.25 0.25 82 989.9
20260509193614 17 259 0.0 4.8 0.00 0.23 0.25 87 989.7
20260509193058 16 50 0.0 6.4 0.00 0.25 0.25 85 989.9
20260509192628 16 50 0.0 4.8 0.00 0.23 0.25 84 989.9
20260509191639 16 5 1.6 6.4 0.00 0.23 0.25 84 990.1
20260509191603 16 5 1.6 6.4 0.00 0.25 0.25 85 990.2
20260509190640 16 5 1.6 9.7 0.00 0.23 0.25 88 990.3
20260509190002 15 5 4.8 12.9 0.00 0.25 0.25 87 990.2
20260509185629 15 344 3.2 14.5 0.00 0.23 0.25 88 990.3
20260509184555 15 331 4.8 14.5 0.00 0.23 0.25 90 990.4
20260509184502 15 9 4.8 16.1 0.00 0.25 0.25 90 990.5
20260509183530 15 5 3.2 11.3 0.00 0.23 0.25 92 990.4
20260509183140 14 304 4.8 9.7 0.00 0.25 0.25 92 990.5
20260509182521 14 0 1.6 11.3 0.00 0.23 0.25 92 990.6
20260509181506 13 288 0.0 3.2 0.00 0.23 0.25 92 990.6
20260509181502 13 288 0.0 3.2 0.00 0.25 0.25 92 990.6
20260509180443 13 288 0.0 3.2 0.00 0.23 0.25 92 990.7
20260509180119 13 355 1.6 3.2 0.00 0.25 0.25 92 990.8
20260509175413 13 5 0.0 3.2 0.00 0.23 0.25 92 990.9
20260509174604 12 5 0.0 4.8 0.00 0.25 0.25 91 990.9
20260509174436 12 5 1.6 0.0 0.00 0.23 0.25 91 990.9
20260509173002 12 5 0.0 3.2 0.00 0.25 0.25 92 991.0
20260509172317 12 5 0.0 0.0 0.00 0.23 0.25 92 990.9
20260509171605 12 5 0.0 1.6 0.00 0.25 0.25 92 991.0
20260509171316 12 5 0.0 6.4 0.00 0.23 0.25 92 991.0
20260509170339 12 5 3.2 6.4 0.00 0.23 0.25 91 990.9
20260509170003 12 5 3.2 6.4 0.00 0.25 0.25 91 991.1
20260509165342 12 17 1.6 6.4 0.00 0.23 0.25 91 991.1
20260509164344 12 9 0.0 3.2 0.00 0.23 0.25 90 991.2
20260509163323 13 9 0.0 1.6 0.00 0.23 0.25 90 991.1
20260509163003 12 9 0.0 0.0 0.20 0.25 0.25 91 991.1
20260509161502 13 42 0.0 0.0 0.23 0.25 0.25 91 990.7
20260509161222 13 42 0.0 0.0 0.10 0.23 0.25 91 990.7
20260509160227 13 42 0.0 0.0 0.20 0.23 0.25 90 990.8
20260509160007 12 42 0.0 0.0 0.25 0.25 0.25 90 990.9
20260509155223 13 41 0.0 0.0 0.25 0.23 0.23 89 991.1
20260509154503 13 41 0.0 0.0 0.20 0.20 0.20 88 991.6
20260509154211 13 42 0.0 0.0 0.48 0.15 0.15 88 991.6
20260509153219 13 41 0.0 0.0 0.23 0.08 0.08 86 991.9
20260509153103 13 41 0.0 4.8 0.08 0.08 0.08 86 992.0
20260509152238 13 42 0.0 1.6 0.00 0.03 0.03 85 991.7
20260509151503 13 42 0.0 3.2 0.03 0.03 0.03 86 991.7
20260509150037 13 59 0.0 4.8 0.00 0.00 0.00 83 991.9
20260509145019 13 19 0.0 0.0 0.00 0.00 0.00 82 991.8
20260509144603 13 61 1.6 4.8 0.00 0.00 0.00 80 991.9
20260509143956 13 63 1.6 6.4 0.00 0.00 0.00 79 991.7
20260509143003 13 70 3.2 6.4 0.00 0.00 0.00 78 991.7
20260509141918 14 88 0.0 6.4 0.00 0.00 0.00 77 991.3
20260509141611 13 56 1.6 4.8 0.00 0.00 0.00 78 991.3
20260509140856 13 56 0.0 3.2 0.00 0.00 0.00 77 991.2
20260509140107 13 84 0.0 4.8 0.00 0.00 0.00 78 991.2
20260509135836 13 84 0.0 4.8 0.00 0.00 0.00 78 991.2
20260509134846 13 117 0.0 3.2 0.00 0.00 0.00 80 991.2
20260509134603 13 17 0.0 4.8 0.00 0.00 0.00 80 991.3
20260509133904 13 17 0.0 0.0 0.00 0.00 0.00 80 990.8
20260509133110 13 17 0.0 4.8 0.00 0.00 0.00 80 990.9
20260509132903 13 17 0.0 0.0 0.00 0.00 0.00 79 990.9
20260509131841 13 15 0.0 0.0 0.00 0.00 0.00 80 990.8
20260509131503 13 17 0.0 8.0 0.00 0.00 0.00 80 990.9
20260509130844 13 86 0.0 3.2 0.00 0.00 0.00 81 991.0
20260509130007 13 5 0.0 4.8 0.00 0.00 0.00 80 990.8
20260509125813 13 5 0.0 0.0 0.00 0.00 0.00 80 990.7
20260509124747 13 5 0.0 4.8 0.00 0.00 0.00 80 991.0
20260509124502 12 17 1.6 6.4 0.00 0.00 0.00 80 991.1
20260509123100 12 5 0.0 6.4 0.00 0.00 0.00 80 990.8
20260509122646 12 13 0.0 11.3 0.00 0.00 0.00 81 990.9
20260509121625 12 19 1.6 11.3 0.00 0.00 0.00 83 990.9
20260509121606 12 19 1.6 12.9 0.00 0.00 0.00 83 990.9
20260509120646 12 275 0.0 3.2 0.00 0.00 0.00 84 990.4
20260509115629 12 275 0.0 3.2 0.00 0.00 0.00 85 990.7
20260509114617 12 333 0.0 3.2 0.00 0.00 0.00 87 990.7
20260509114503 11 333 0.0 3.2 0.00 0.00 0.00 86 990.8
20260509113553 12 336 0.0 0.0 0.00 0.00 0.00 86 990.5
20260509113104 11 336 0.0 6.4 0.00 0.00 0.00 87 990.6
20260509112554 12 263 0.0 3.2 0.00 0.00 0.00 86 990.4
20260509111602 11 263 0.0 0.0 0.00 0.00 0.00 86 990.3
20260509111558 12 263 0.0 0.0 0.00 0.00 0.00 86 990.3
20260509110619 12 263 0.0 1.6 0.00 0.00 0.00 85 990.5
20260509105555 11 263 0.0 1.6 0.00 0.00 0.00 85 990.4
20260509104603 11 263 0.0 1.6 0.00 0.00 0.00 86 990.5
20260509104537 11 263 0.0 0.0 0.00 0.00 0.00 86 990.4
20260509103504 11 263 0.0 1.6 0.00 0.00 0.00 86 990.3
20260509103004 11 263 0.0 3.2 0.00 0.00 0.00 86 990.3
20260509102453 11 263 0.0 1.6 0.00 0.00 0.00 86 990.1
20260509101511 11 263 0.0 0.0 0.00 0.00 0.00 86 990.2
20260509101502 11 263 0.0 0.0 0.00 0.00 0.00 86 990.2
20260509100447 11 263 0.0 3.2 0.00 0.00 0.00 86 990.1
20260509095435 11 263 0.0 0.0 0.00 0.00 0.00 86 990.1
20260509094602 11 263 0.0 3.2 0.00 0.00 0.00 85 989.9
20260509094432 11 263 0.0 1.6 0.00 0.00 0.00 85 990.0
20260509093446 11 263 0.0 3.2 0.00 0.00 0.00 85 990.3
20260509093006 11 263 0.0 4.8 0.00 0.00 0.00 86 990.2
20260509092436 11 263 0.0 3.2 0.00 0.00 0.00 86 990.2
20260509091602 11 263 0.0 1.6 0.00 0.00 0.00 86 990.3
20260509091453 11 263 0.0 0.0 0.00 0.00 0.00 86 990.3
20260509090505 11 263 0.0 0.0 0.00 0.00 0.00 87 990.3
20260509090003 11 263 1.6 4.8 0.00 0.00 0.00 87 990.2
20260509084504 10 263 1.6 3.2 0.00 0.00 0.00 87 990.5
20260509084319 10 263 0.0 1.6 0.00 0.00 0.00 87 990.5
20260509083313 10 263 0.0 0.0 0.00 0.00 0.00 87 990.5
20260509083106 10 263 0.0 3.2 0.00 0.00 0.00 87 990.6
20260509082248 10 263 0.0 1.6 0.00 0.00 0.00 86 990.6
20260509081502 10 263 0.0 0.0 0.00 0.00 0.00 86 990.8
20260509081254 10 263 0.0 0.0 0.00 0.00 0.00 85 990.7
20260509080303 10 263 0.0 0.0 0.00 0.00 0.00 85 990.8
20260509080010 10 263 0.0 3.2 0.00 0.00 0.00 85 990.8
20260509075240 10 263 0.0 1.6 0.00 0.00 0.00 85 990.6
20260509074503 10 263 1.6 3.2 0.00 0.00 0.00 84 990.7
20260509073135 10 263 0.0 0.0 0.00 0.00 0.00 83 990.8
20260509073102 10 263 0.0 3.2 0.00 0.00 0.00 83 990.8
20260509072158 10 263 0.0 3.2 0.00 0.00 0.00 82 990.9
20260509071601 10 263 1.6 4.8 0.00 0.00 0.00 80 991.0
20260509071222 10 263 0.0 0.0 0.00 0.00 0.00 79 990.9
20260509070207 11 169 0.0 0.0 0.00 0.00 0.00 78 990.9
20260509070003 10 169 0.0 0.0 0.00 0.00 0.00 78 991.0
20260509064620 11 169 0.0 0.0 0.00 0.00 0.00 76 990.9
20260509064042 11 169 0.0 0.0 0.00 0.00 0.00 76 990.9
20260509063056 11 169 0.0 0.0 0.00 0.00 0.00 77 990.9
20260509063003 11 169 0.0 0.0 0.00 0.00 0.00 76 991.0
20260509062046 11 169 0.0 0.0 0.00 0.00 0.00 77 990.9
20260509061509 11 169 0.0 3.2 0.00 0.00 0.00 78 991.0
20260509061016 11 169 0.0 0.0 0.00 0.00 0.00 78 990.9
20260509060040 11 276 3.2 11.3 0.00 0.00 0.00 80 990.8
20260509055103 11 288 0.0 3.2 0.00 0.00 0.00 81 991.1
20260509054604 10 288 0.0 3.2 0.00 0.00 0.00 82 991.3
20260509054030 11 288 0.0 1.6 0.00 0.00 0.00 82 991.3
20260509053007 11 288 3.2 6.4 0.00 0.00 0.00 83 991.4
20260509051837 11 288 0.0 0.0 0.00 0.00 0.00 81 991.6
20260509051604 10 288 0.0 0.0 0.00 0.00 0.00 81 991.6
20260509050824 11 288 0.0 0.0 0.00 0.00 0.00 81 991.6
20260509050003 11 288 0.0 6.4 0.00 0.00 0.00 81 991.6
20260509045822 11 288 1.6 4.8 0.00 0.00 0.00 81 991.6